Volver al catálogo

ATLAS F DEB

ActivoLEO
NORAD 29197·DEBRIS·🇺🇸 United States

Lanzado May 13, 1978 desde Vandenberg Space Force Base

Loading…

Próximos Pases (próximas 24 horas)

TLE

ActualizadoSource: Space-Track

Época: Sep 14, 2026, 11:21 UTC

1 29197U 78047C   26257.47303509  .00338228  00000-0  74701-1 0  9993
2 29197  63.6339 222.8717 0910894 357.7509  83.4610 13.22535270770282

Sigue ATLAS F DEB en tiempo real con AllMySat

Download on the App Store